Regional Weather Roundup
Issued by NWS

Home | Current Version | Previous Version | Text Only | Print | Product List | Glossary On
Versions: 1 2 3 4 5 6 7 8 9 10 11 12 13 14 15 16 17 18 19 20 21 22 23 24 25 26 27 28 29 30 31 32 33 34 35 36 37 38 39 40 41 42 43 44 45 46 47 48 49 50
000
ASUS43 KMPX 220601
RWRMN
WEATHER ROUNDUP FOR MINNESOTA
NATIONAL WEATHER SERVICE TWIN CITIES/CHANHASSEN MN
1200 AM CST MON JAN 22 2018


NOTE: "FAIR" INDICATES FEW OR NO CLOUDS BELOW 12,000 FEET WITH NO
SIGNIFICANT WEATHER AND/OR OBSTRUCTIONS TO VISIBILITY. N/A MEANS
CURRENT SKY AND/OR WEATHER CONDITIONS ARE NOT AVAILABLE.

MNZ060>063-068>070-220700-
   Twin Cities Metro

CITY           SKY/WX    TMP DP  RH WIND       PRES   REMARKS
TWIN CITIES    CLOUDY    35  30  82 N12       29.92F WCI  27
6HR MIN TEMP:  35; 6HR MAX TEMP:  37;

ST PAUL        CLOUDY    36  29  75 MISG      29.93F
CRYSTAL        CLOUDY    34  26  72 N12       29.92F WCI  25
BLAINE         FAIR      36  30  80 N12       29.93F
LAKEVILLE      CLOUDY    36  30  80 N9        29.89F
EDEN PRAIRIE   CLOUDY    36  28  73 N10       29.90F
6HR MIN TEMP:  36; 6HR MAX TEMP:  37;

SOUTH ST PAUL  CLOUDY    37  29  75 N6        29.91F
LAKE ELMO      FAIR      36  30  80 N7        29.92F
$$
MNZ001>005-007-008-013>017-022>024-027-028-220700-
   Northwest Minnesota

CITY           SKY/WX    TMP DP  RH WIND       PRES   REMARKS
BEMIDJI        CLOUDY    25  24  97 N6        30.05S WCI  18
HALLOCK        CLOUDY    21  19  93 CALM      30.13R
ROSEAU         CLOUDY    25  19  80 N5        30.12S WCI  19
WARROAD        CLOUDY    25  19  80 CALM      30.12S
THIEF RVR FALL CLOUDY    23  21  93 NE5       30.11S WCI  17
CROOKSTON      CLOUDY    25  23  93 CALM      30.12S
FOSSTON        CLOUDY    23  21  93 NE3       30.08S
DETROIT LAKES  CLOUDY    27  27 100 NE10      30.04F WCI  17
MOORHEAD       CLOUDY    25  21  86 NE14      30.08F WCI  13
PARK RAPIDS    CLOUDY    25  22  88 NE8       30.03S FOG     WCI  16
MAHNOMEN       CLOUDY    24  23  96 NE8       30.07S WCI  15
$$
MNZ006-009>011-018-025>026-220700-
   North Central Minnesota

CITY           SKY/WX    TMP DP  RH WIND       PRES   REMARKS
BAUDETTE       CLOUDY    25  24  96 CALM      30.09S
FLAG ISLAND    CLOUDY    21  19  93 NE5       30.11F FOG     WCI  15
INTL FALLS     CLOUDY    23  20  88 NE7       30.10R WCI  15
6HR MIN TEMP:  23; 6HR MAX TEMP:  27;

WASKISH        CLOUDY    27  25  93 CALM      30.09R
BIG FORK       CLOUDY    27  25  93 CALM      30.06S FOG
LONGVILLE      CLOUDY    27  25  93 NE3       30.04S
GRAND RAPIDS   CLOUDY    26  25  96 VRB3      30.06S FOG
CRANE LAKE     CLOUDY    21  21 100 NE3       30.12S
ORR            CLOUDY    27  23  86 CALM      30.05S FOG
COOK           FOG       25  25 100 CALM      30.07S VSB 1
WALKER         CLOUDY    24  23  96 N3        30.05S FOG
$$
MNZ012-019>021-037-220700-
   Northeast Minnesota

CITY           SKY/WX    TMP DP  RH WIND       PRES   REMARKS
DULUTH         LGT SNOW  28  26  92 E14       30.02F VSB 1   WCI  17
6HR MIN TEMP:  28; 6HR MAX TEMP:  30; 6HR PCP:  0.02;

HIBBING        CLOUDY    26  24  92 N5        30.04F FOG     WCI  20
EVELETH        CLOUDY    25  22  89 NE3       30.05F
DULUTH HARBOR  CLOUDY    30  28  93 NE28      30.07F WCI  16
TWO HARBORS    CLOUDY    30  25  80 NE13G18   30.05F HAZE    WCI  20
GRAND MARAIS     N/A     26  20  77 NE9       30.14S WCI  17
G MARAIS ARPRT CLOUDY    18  14  86 N8        30.06F WCI   7
$$
MNZ029>031-032-039>041-046>048-054>057-064-220700-
   West Central Minnesota

CITY           SKY/WX    TMP DP  RH WIND       PRES   REMARKS
FERGUS FALLS   CLOUDY    27  25  93 NE9       30.02F WCI  17
WHEATON        CLOUDY    25  23  93 N8        30.04F WCI  16
MORRIS         CLOUDY    25  23  93 N12       29.97F FOG     WCI  14
ALEXANDRIA     CLOUDY    24  23  96 NE12      29.98F WCI  13
ELBOW LAKE     CLOUDY    26  25  95 NE7       30.01F WCI  18
WADENA         CLOUDY    25  25 100 NE10      30.01F FOG     WCI  15
GLENWOOD       FAIR      25  23  93 NE14      29.96F WCI  13
APPLETON       CLOUDY    28  27  93 N9        29.98F WCI  20
BENSON         CLOUDY    28  27  93 NE7       29.98F WCI  21
ORTONVILLE     CLOUDY    27  23  86 N13       29.99S WCI  16
MADISON        CLOUDY    30  27  86 N13       29.98F WCI  20
WILLMAR        FAIR      30  27  86 N16       29.96F WCI  19
$$
MNZ033>034-036-042>043-049>051-058-059-220700-
   Central Minnesota

CITY           SKY/WX    TMP DP  RH WIND       PRES   REMARKS
ST CLOUD       CLOUDY    29  25  85 N6        29.96F WCI  23
6HR MIN TEMP:  29; 6HR MAX TEMP:  34;

SAUK CENTRE      N/A     26  23  87 NE9       29.97F WCI  17
PAYNESVILLE    FAIR      29  27  92 N13       29.95F WCI  19
AITKIN         CLOUDY    27  25  93 N6        30.02R WCI  20
PINE RIVER     CLOUDY    25  21  86 NE5       30.07S WCI  19
BRAINERD       CLOUDY    27  24  89 NE14      30.02S WCI  16
STAPLES        CLOUDY    25  25 100 NE8       30.01F FOG     WCI  16
LONG PRAIRIE   CLOUDY    25  23  93 N10       29.99F FOG     WCI  15
LITTLE FALLS   CLOUDY    27  21  80 N3        29.99F
LITCHFIELD     FAIR      34  28  80 N13       29.93F WCI  25
BUFFALO        CLOUDY    33  28  80 N10       29.95F WCI  25
MAPLE LAKE     MOCLDY    34  30  85 MISG      29.95F
HUTCHINSON     CLOUDY    34  30  84 N12G20    29.92F WCI  26
$$
MNZ037-044-045-052-053-220700-
   East Central Minnesota

CITY           SKY/WX    TMP DP  RH WIND       PRES   REMARKS
PRINCETON      CLOUDY    32  28  86 NE7       29.98F WCI  26
MORA           CLOUDY    30  28  93 NE7       30.02R WCI  23
CAMBRIDGE      CLOUDY    34  27  75 N5        29.98F WCI  30
RUSH CITY      CLOUDY    31  28  90 NE9       30.00S WCI  22
MOOSE LAKE     CLOUDY    30  28  93 NE10G16   30.00F WCI  21
HINCKLEY       CLOUDY    32  30  93 NE10      30.00S WCI  24
CLOQUET        LGT SNOW  28  27  93 E12       30.02F WCI  18
MCGREGOR       CLOUDY    30  27  86 NE6       30.03S WCI  24
$$
MNZ071>073-080-081-089-090-097-098-220700-
   Southwest Minnesota

CITY           SKY/WX    TMP DP  RH WIND       PRES   REMARKS
MONTEVIDEO     MOCLDY    30  28  93 NE12      29.96F WCI  21
GRANITE FALLS  CLOUDY    34  30  87 N14       29.95F WCI  24
CANBY          CLOUDY    29  27  94 NW13G18   29.97F WCI  18
MARSHALL       CLOUDY    30  28  92 N10G26    29.91S WCI  21
REDWOOD FALLS  CLOUDY    34  28  79 NE6       29.90F WCI  29
OLIVIA         CLOUDY    34  30  86 N15       29.91F WCI  24
PIPESTONE      LGT SNOW  28  27  93 NE20G28   29.84F WCI  15
WINDOM         CLOUDY    34  18  51 N18       29.83F WCI  23
WORTHINGTON    CLOUDY    32  29  88 N26       29.75F WCI  18
JACKSON        CLOUDY    32  30  93 NE24      29.79F WCI  19
TRACY          CLOUDY    33  31  93 N14       29.88F WCI  23
SLAYTON        LGT SNOW  31  29  94 N16G22    29.87F WCI  20
$$
MNZ065>067-074>077-082>085-091>093-220700-
   South Central Minnesota

CITY           SKY/WX    TMP DP  RH WIND       PRES   REMARKS
MANKATO        CLOUDY    35  29  78 NE15      29.86F WCI  25
NEW ULM        MOCLDY    34  27  75 NE12G18   29.87F WCI  25
ST JAMES       CLOUDY    34  28  80 N13G20    29.85F WCI  25
FAIRMONT       CLOUDY    34  29  82 N18       29.78F WCI  23
FARIBAULT      CLOUDY    36  30  80 N10G16    29.87F
OWATONNA       CLOUDY    36  30  80 NE12G21   29.85S
WASECA         CLOUDY    36  32  87 NE15G21   29.86S
ALBERT LEA     FLURRIES  36  30  80 NE15      29.80F
$$
MNZ078>079-086>088-094>096-220700-
   Southeast Minnesota

CITY           SKY/WX    TMP DP  RH WIND       PRES   REMARKS
ROCHESTER      CLOUDY    35  31  85 NE13      29.84S WCI  26
6HR MIN TEMP:  35; 6HR MAX TEMP:  36; 6HR PCP: TRACE;

RED WING       CLOUDY    39  28  65 E5        29.88F
STANTON        CLOUDY    36  31  83 NE10      29.86F
DODGE CENTER   CLOUDY    36  30  80 NE12      29.85R
WINONA         CLOUDY    37  32  81 NE3       29.86S
AUSTIN         LGT RAIN  36  30  80 NE9       29.81F
PRESTON        CLOUDY    36  31  83 NE13      29.81F
$$
ABBREVIATIONS USED IN REMARKS
   TC - TEMPERATURES IN CELSIUS
  WCI - WIND CHILL INDEX
   HX - HEAT INDEX
  VSB - VISIBILITY
$$




USA.gov is the U.S. government's official web portal to all federal, state and local government web resources and services.